Auburn, AL

4:30 PM CST on November 13, 2019 (GMT -0600)
Auburn-opelika-pitts

Weather History for KAUO - June, 2019

Change the Weather History Date:

Sunday, June 2, 2019

  Actual Average Record
Temperature  
Mean Temperature 78 °F -  
Max Temperature 90 °F - 97 °F (2011)
Min Temperature 65 °F - 37 °F (1984)
Cooling Degree Days 13    
Month to date cooling degree days 26  
Year to date cooling degree days 442  
Since 1 June cooling degree days 26  
Growing Degree Days 26 (Base 50)    
Moisture  
Dew Point 63 °F    
Average Humidity 61    
Maximum Humidity 100    
Minimum Humidity 40    
Precipitation  
Precipitation 0.00 in - 4.00 in (2006)
Month to date precipitation 0.00  
Year to date precipitation 20.46  
Sea Level Pressure  
Sea Level Pressure 29.96 in    
Wind  
Wind Speed 5 mph (NW)    
Max Wind Speed 12 mph    
Max Gust Speed -    
Visibility 10 miles    
Events      
T = Trace of Precipitation, MM = Missing Value Source: NWS Daily Summary

Daily Weather History Graph

Daily Weather History Graph

Search for Another Location

Airport or City:

Astronomy

Jun. 02, 2019 Rise Set
Actual Time 5:34 AM CDT 7:44 PM CDT
Civil Twilight 5:06 AM CDT 8:13 PM CDT
Nautical Twilight 4:32 AM CDT 8:47 PM CDT
Astronomical Twilight 3:55 AM CDT 9:24 PM CDT
Moon 5:07 AM CDT (6/2) 7:07 PM CDT (6/2)
Length of Visible Light 15h 06m
Length of Day
14h 10m
Waning Crescent, 1% of the Moon is Illuminated
Jun 2
Waning Crescent
Jun 3
New
Jun 10
First Quarter
Jun 17
Full
Jun 25
Last Quarter

Hourly Weather History & Observations

Time (CDT) Temp. Heat Index Dew Point Humidity Pressure Visibility Wind Dir Wind Speed Gust Speed Precip Events Conditions
12:56 AM 70.0 °F - 61.0 °F 73% 29.94 in 10.0 mi Calm Calm - N/A   Clear
1:56 AM 70.0 °F - 61.0 °F 73% 29.94 in 10.0 mi NNW 3.5 mph - N/A   Clear
2:56 AM 66.0 °F - 63.0 °F 90% 29.93 in 10.0 mi NNW 5.8 mph - N/A   Clear
3:56 AM 68.0 °F - 64.0 °F 87% 29.94 in 10.0 mi NNW 4.6 mph - N/A   Clear
4:56 AM 64.9 °F - 64.9 °F 100% 29.95 in 10.0 mi NNW 4.6 mph - N/A   Clear
5:56 AM 66.0 °F - 66.0 °F 100% 29.96 in 10.0 mi NNW 5.8 mph - N/A   Clear
6:56 AM 70.0 °F - 64.9 °F 84% 29.98 in 10.0 mi NNW 4.6 mph - N/A   Clear
7:56 AM 75.0 °F - 61.0 °F 62% 29.99 in 10.0 mi NNW 4.6 mph - N/A   Clear
8:56 AM 80.1 °F 81.2 °F 62.1 °F 54% 29.99 in 10.0 mi NNW 5.8 mph - N/A   Clear
9:56 AM 84.0 °F 84.4 °F 61.0 °F 46% 30.00 in 10.0 mi NW 9.2 mph - N/A   Clear
10:56 AM 84.9 °F 85.4 °F 62.1 °F 46% 30.00 in 10.0 mi North 8.1 mph - N/A   Clear
11:56 AM 86.0 °F 86.3 °F 62.1 °F 44% 29.99 in 10.0 mi WNW 9.2 mph - N/A   Clear
12:56 PM 88.0 °F 88.4 °F 62.1 °F 42% 29.99 in 10.0 mi NNW 11.5 mph - N/A   Scattered Clouds
1:56 PM 89.1 °F 89.3 °F 62.1 °F 40% 29.96 in 10.0 mi North 5.8 mph - N/A   Clear
2:56 PM 88.0 °F 88.4 °F 62.1 °F 42% 29.96 in 10.0 mi NNW 8.1 mph - N/A   Scattered Clouds
3:56 PM 89.1 °F 89.3 °F 62.1 °F 40% 29.95 in 10.0 mi West 11.5 mph - N/A   Mostly Cloudy
4:56 PM 89.1 °F 89.3 °F 62.1 °F 40% 29.94 in 10.0 mi NW 8.1 mph - N/A   Partly Cloudy
5:56 PM 88.0 °F 88.4 °F 62.1 °F 42% 29.94 in 10.0 mi WNW 8.1 mph - N/A   Clear
6:56 PM 86.0 °F 86.3 °F 62.1 °F 44% 29.94 in 10.0 mi West 5.8 mph - N/A   Clear
7:56 PM 82.9 °F 84.0 °F 63.0 °F 51% 29.94 in 10.0 mi Calm Calm - N/A   Clear
8:56 PM 79.0 °F - 64.9 °F 62% 29.95 in 10.0 mi South 3.5 mph - N/A   Clear
9:56 PM 77.0 °F - 64.9 °F 66% 29.97 in 10.0 mi Calm Calm - N/A   Clear
10:56 PM 75.9 °F - 66.0 °F 71% 29.97 in 10.0 mi Calm Calm - N/A   Clear
11:56 PM 75.9 °F - 66.9 °F 74% 29.97 in 10.0 mi Calm Calm - N/A   Clear